Home > Weather > Tirana > Past weeks

Flag for Albania Weather for the Past 2 Weeks in Tirana, Albania

Now
59 °F

Clear.


Feels Like: 60 °F
Forecast: 49 / 73 °F
Wind: 3 mph from North

Location: Tirana Airport

Current Time: May 5, 2016 at 9:59:39 PM

Latest Report: May 5, 2016 at 9:20 PM


Visibility: 10 mi

Pressure: 29.95 "Hg

Humidity: 59%

Dew Point: 45 °F

Location of TiranaLocation

Historic Weather in Tirana — Graph

°F

Tirana Temperature Yesterday

Maximum temperature yesterday: 68 °F (at 2:20 PM)
Minimum temperature yesterday: 52 °F (at 2:50 AM)
Average temperature yesterday: 59 °F

High & Low Weather Summary for the Past Weeks

 TemperatureHumidityPressure
High73 °F (Apr 21, 2:20 PM)100% (May 2, 5:20 AM)30.21 "Hg (May 2, 5:20 AM)
Low39 °F (Apr 21, 5:50 AM)16% (Apr 21, 1:50 PM)29.50 "Hg (Apr 25, 4:50 PM)
Average59 °F68%29.88 "Hg
* Reported Apr 20 8:20 PM — May 5 8:20 PM, Tirana, Weather by CustomWeather, © 2016

Note: Actual official high and low records may vary slightly from our data, if they occured in-between our weather recording intervals... More about our weather records

Advertising

Tirana Weather History for the Previous 24 Hours

Scroll right to see more
 ConditionsComfort  
Time TempWeatherWind HumidityBarometerVisibility
8:20 PM
Thu, May 5
63 °FSunny.5 mph52%29.95 "Hg10 mi
7:50 PM64 °FScattered clouds.5 mph52%29.95 "HgN/A
7:20 PM66 °FScattered clouds.6 mph46%29.92 "HgN/A
6:50 PM68 °FScattered clouds.6 mph43%29.92 "HgN/A
6:20 PM70 °FScattered clouds.3 mph38%29.92 "HgN/A
5:50 PM70 °FBroken clouds.8 mph38%29.92 "HgN/A
5:20 PM70 °FBroken clouds.12 mph38%29.92 "HgN/A
4:50 PM73 °FScattered clouds.14 mph31%29.92 "HgN/A
4:20 PM73 °FBroken clouds.7 mph31%29.92 "HgN/A
3:50 PM73 °FBroken clouds.9 mph27%29.92 "HgN/A
3:20 PM73 °FBroken clouds.8 mph27%29.92 "HgN/A
2:50 PM73 °FBroken clouds.2 mph25%29.92 "HgN/A
2:20 PM73 °FScattered clouds.7 mph31%29.92 "HgN/A
1:50 PM72 °FScattered clouds.9 mph38%29.92 "HgN/A
1:20 PM70 °FScattered clouds.10 mph35%29.92 "HgN/A
12:50 PM72 °FScattered clouds.9 mph38%29.92 "HgN/A
12:20 PM72 °FPassing clouds.10 mph33%29.92 "HgN/A
11:50 AM72 °FPassing clouds.9 mph36%29.95 "HgN/A
11:20 AM68 °FPassing clouds.10 mph38%29.95 "HgN/A
10:50 AM70 °FPassing clouds.7 mph35%29.95 "HgN/A
10:20 AM68 °FPassing clouds.7 mph38%29.95 "HgN/A
9:50 AM66 °FPassing clouds.6 mph37%29.95 "HgN/A
9:20 AM64 °FSunny.7 mph40%29.95 "Hg10 mi
8:50 AM63 °FPassing clouds.6 mph52%29.95 "HgN/A
8:20 AM61 °FPassing clouds.3 mph55%29.92 "HgN/A
7:50 AM57 °FPassing clouds.3 mph59%29.95 "HgN/A
7:20 AM55 °FPassing clouds.3 mph63%29.92 "HgN/A
6:50 AM52 °FSunny.2 mph72%29.92 "Hg10 mi
6:20 AM50 °FPassing clouds.6 mph71%29.92 "HgN/A
5:50 AM48 °FPassing clouds.2 mph76%29.92 "HgN/A
5:20 AM48 °FPassing clouds.2 mph82%29.89 "HgN/A
4:50 AM48 °FPassing clouds.5 mph82%29.89 "HgN/A
4:20 AM50 °FPassing clouds.2 mph76%29.89 "HgN/A
3:50 AM52 °FPassing clouds.3 mph72%29.89 "HgN/A
3:20 AM50 °FPassing clouds.6 mph76%29.89 "HgN/A
2:50 AM52 °FClear.1 mph77%29.89 "Hg10 mi
2:20 AM54 °FPassing clouds.2 mph67%29.89 "HgN/A
1:50 AM54 °FPassing clouds.5 mph67%29.89 "HgN/A
1:20 AM55 °FPassing clouds.2 mph63%29.89 "HgN/A
12:50 AM55 °FPassing clouds.2 mph63%29.89 "HgN/A
12:20 AM57 °FPassing clouds.6 mph51%29.89 "HgN/A
11:50 PM
Wed, May 4
57 °FPassing clouds.5 mph55%29.89 "HgN/A
11:20 PM57 °FPassing clouds.3 mph59%29.89 "HgN/A
10:50 PM59 °FPassing clouds.2 mph51%29.89 "HgN/A
10:20 PM59 °FPassing clouds.7 mph48%29.89 "HgN/A
9:50 PM57 °FPassing clouds.7 mph51%29.86 "HgN/A
9:20 PM59 °FPassing clouds.2 mph48%29.86 "HgN/A
Weather by CustomWeather, © 2016

See weather overviewHow to use our weather pages